Date String (YYYY-MM-DD hh:mm:ss) UTC,Instrument flags,Ambient pressure (hPa),Sample flow (lpm),Bypass flow (lpm),Sample temperature (°C),Ambient temperature (°C),ASC tube jacket temperature (°C),LED temperature (°C),Box temperature (°C),Sample RH (%),Span deviation,Mass concentration (μg/m³),Mass concentration (μg/m³),Mass concentration (μg/m³)
DateTimeUTC,F1_M11,P_M11,Q1_M11,Q2_M11,T1_M11,T2_M11,T3_M11,T4_M11,T5_M11,U1_M11,ZSPAN_M11,X0_M11,X2_M11,X1_M11
2021-11-04 02:00:00,,0831.2,5.00,0.00,28.9,28.1,00.0,38.1,30.6,14.8,0000.0,0008.57,0004.20,0003.90
2021-11-04 02:01:00,,0831.2,5.00,0.00,28.9,28.1,00.0,38.1,30.6,14.7,0000.0,0008.10,0004.19,0003.90
2021-11-04 02:02:00,,0831.2,5.01,0.00,28.9,28.1,00.0,38.1,30.6,14.7,0000.0,0008.18,0004.20,0003.91
2021-11-04 02:03:00,,0831.1,5.00,0.00,28.9,28.0,00.0,38.1,30.6,14.7,0000.0,0008.66,0004.18,0003.91
2021-11-04 02:04:00,,0831.2,4.99,0.00,28.9,28.0,00.0,38.1,30.6,14.7,0000.0,0008.65,0004.21,0003.94
2021-11-04 02:05:00,,0831.2,5.00,0.00,28.9,28.0,00.0,38.1,30.6,14.7,0000.0,0008.70,0004.23,0003.95
2021-11-04 02:06:00,,0831.2,5.01,0.00,28.9,28.0,00.0,38.1,30.6,14.7,0000.0,0008.90,0004.26,0003.96
2021-11-04 02:07:00,,0831.2,5.01,0.00,28.9,28.0,00.0,38.1,30.6,14.7,0000.0,0008.98,0004.30,0003.97
2021-11-04 02:08:00,,0831.2,5.00,0.00,28.9,28.0,00.0,38.1,30.6,14.7,0000.0,0009.00,0004.31,0003.98
2021-11-04 02:09:00,,0831.2,5.00,0.00,28.9,28.0,00.0,38.0,30.6,14.7,0000.0,0008.84,0004.31,0003.98
2021-11-04 02:10:00,,0831.2,5.00,0.00,28.9,28.0,00.0,38.0,30.6,14.6,0000.0,0008.50,0004.33,0003.98
2021-11-04 02:11:00,,0831.2,5.00,0.00,28.9,28.0,00.0,38.0,30.6,14.7,0000.0,0008.22,0004.33,0003.99
2021-11-04 02:12:00,,0831.2,4.99,0.00,28.9,28.0,00.0,38.0,30.5,14.6,0000.0,0008.36,0004.38,0004.01
2021-11-04 02:13:00,,0831.2,5.00,0.00,28.9,28.0,00.0,38.0,30.6,14.6,0000.0,0008.26,0004.38,0004.01
2021-11-04 02:14:00,,0831.2,4.99,0.00,28.9,28.0,00.0,38.0,30.6,14.6,0000.0,0007.98,0004.43,0004.04
2021-11-04 02:15:00,,0831.2,5.00,0.00,28.9,27.9,00.0,38.0,30.5,14.6,0000.0,0008.19,0004.44,0004.04
2021-11-04 02:16:00,,0831.2,5.00,0.00,28.8,28.0,00.0,38.0,30.6,14.6,0000.0,0008.38,0004.44,0004.04
2021-11-04 02:17:00,,0831.2,5.00,0.00,28.8,27.9,00.0,38.0,30.6,14.6,0000.0,0008.24,0004.44,0004.04
2021-11-04 02:18:00,,0831.2,5.00,0.00,28.8,27.9,00.0,38.0,30.6,14.6,0000.0,0008.20,0004.42,0004.04
2021-11-04 02:19:00,,0831.2,4.99,0.00,28.8,27.9,00.0,38.0,30.5,14.6,0000.0,0008.18,0004.42,0004.04
2021-11-04 02:20:00,,0831.2,4.99,0.00,28.8,27.9,00.0,38.0,30.5,14.6,0000.0,0008.46,0004.41,0004.04
2021-11-04 02:21:00,,0831.2,5.00,0.00,28.8,27.9,00.0,37.9,30.5,14.6,0000.0,0008.79,0004.42,0004.05
2021-11-04 02:22:00,,0831.2,4.99,0.00,28.8,27.9,00.0,37.9,30.5,14.6,0000.0,0008.73,0004.44,0004.06
2021-11-04 02:23:00,,0831.3,4.99,0.00,28.8,27.9,00.0,37.9,30.5,14.6,0000.0,0008.65,0004.41,0004.06
2021-11-04 02:24:00,,0831.2,4.99,0.00,28.8,27.9,00.0,37.9,30.5,14.6,0000.1,0008.53,0004.41,0004.07
2021-11-04 02:25:00,,0831.2,5.00,0.00,28.8,27.9,00.0,37.9,30.5,14.6,0000.8,0008.29,0004.38,0004.06
2021-11-04 02:26:00,,0831.2,5.00,0.00,28.7,27.8,00.0,37.9,30.4,14.6,0000.4,0008.13,0004.40,0004.07
2021-11-04 02:27:00,,0831.1,5.00,0.00,28.7,27.8,00.0,37.9,30.4,14.6,0000.7,0007.88,0004.42,0004.08
2021-11-04 02:28:00,,0831.1,5.00,0.00,28.7,27.8,00.0,37.9,30.5,14.6,0000.7,0007.88,0004.41,0004.08
2021-11-04 02:29:00,,0831.2,5.00,0.00,28.7,27.8,00.0,37.9,30.4,14.6,0000.8,0007.94,0004.42,0004.08
2021-11-04 02:30:00,,0831.1,5.00,0.00,28.7,27.8,00.0,37.9,30.4,14.6,0001.1,0007.97,0004.43,0004.08
2021-11-04 02:31:00,,0831.2,5.00,0.00,28.7,27.8,00.0,37.9,30.4,14.6,0000.5,0007.66,0004.43,0004.09
2021-11-04 02:32:00,,0831.2,5.01,0.00,28.7,27.8,00.0,37.8,30.4,14.7,0000.2,0007.00,0004.42,0004.09
2021-11-04 02:33:00,,0831.2,5.00,0.00,28.7,27.8,00.0,37.8,30.4,14.7,0001.0,0007.03,0004.41,0004.09
2021-11-04 02:34:00,,0831.2,5.00,0.00,28.7,27.8,00.0,37.8,30.4,14.7,0001.9,0007.12,0004.42,0004.07
2021-11-04 02:35:00,,0831.1,5.00,0.00,28.7,27.8,00.0,37.8,30.4,14.6,0002.2,0007.10,0004.43,0004.08
2021-11-04 02:36:00,,0831.1,5.00,0.00,28.7,27.8,00.0,37.8,30.4,14.7,0001.7,0007.04,0004.42,0004.08
2021-11-04 02:37:00,,0831.1,4.99,0.00,28.6,27.7,00.0,37.8,30.4,14.6,0002.1,0007.38,0004.42,0004.08
2021-11-04 02:38:00,,0831.1,4.99,0.00,28.6,27.7,00.0,37.8,30.4,14.6,0000.7,0007.57,0004.42,0004.08
2021-11-04 02:39:00,,0831.2,5.00,0.00,28.6,27.7,00.0,37.8,30.3,14.6,0000.2,0007.72,0004.44,0004.09
2021-11-04 02:40:00,,0831.2,5.00,0.00,28.6,27.7,00.0,37.8,30.4,14.6,0001.2,0007.75,0004.45,0004.10
2021-11-04 02:41:00,,0831.1,5.00,0.00,28.6,27.7,00.0,37.8,30.3,14.6,0000.6,0007.82,0004.47,0004.12
2021-11-04 02:42:00,,0831.1,5.00,0.00,28.6,27.7,00.0,37.8,30.3,14.6,0000.7,0007.83,0004.49,0004.13
2021-11-04 02:43:00,,0831.1,4.99,0.00,28.6,27.7,00.0,37.7,30.3,14.7,0000.8,0007.88,0004.50,0004.13
2021-11-04 02:44:00,,0831.1,5.00,0.00,28.6,27.7,00.0,37.7,30.3,14.7,0000.2,0007.96,0004.54,0004.13
2021-11-04 02:45:00,,0831.1,5.00,0.00,28.6,27.7,00.0,37.7,30.3,14.7,-000.3,0007.91,0004.53,0004.15
2021-11-04 02:46:00,,0831.1,5.00,0.00,28.6,27.7,00.0,37.7,30.2,14.7,-000.6,0007.89,0004.53,0004.15
2021-11-04 02:47:00,,0831.0,5.01,0.00,28.6,27.7,00.0,37.7,30.3,14.6,0000.0,0007.99,0004.57,0004.17
2021-11-04 02:48:00,,0831.0,4.99,0.00,28.6,27.7,00.0,37.7,30.3,14.6,0000.0,0007.80,0004.59,0004.18
2021-11-04 02:49:00,,0831.0,5.00,0.00,28.5,27.7,00.0,37.7,30.3,14.6,0000.0,0007.70,0004.61,0004.18
2021-11-04 02:50:00,,0831.0,5.00,0.00,28.5,27.7,00.0,37.7,30.3,14.7,-000.5,0007.70,0004.61,0004.18
2021-11-04 02:51:00,,0831.0,4.99,0.00,28.5,27.6,00.0,37.7,30.3,14.6,-000.1,0007.65,0004.60,0004.17
2021-11-04 02:52:00,,0831.0,5.00,0.00,28.5,27.6,00.0,37.7,30.3,14.7,0000.0,0008.19,0004.62,0004.18
2021-11-04 02:53:00,,0831.0,5.01,0.00,28.5,27.6,00.0,37.7,30.3,14.7,0000.0,0008.50,0004.62,0004.19
2021-11-04 02:54:00,,0831.0,4.99,0.00,28.5,27.6,00.0,37.7,30.2,14.7,0000.0,0008.93,0004.62,0004.20
2021-11-04 02:55:00,,0831.1,5.00,0.00,28.5,27.6,00.0,37.6,30.2,14.7,0000.0,0008.94,0004.62,0004.20
2021-11-04 02:56:00,,0831.0,5.00,0.00,28.5,27.6,00.0,37.6,30.2,14.7,0000.0,0008.94,0004.61,0004.20
2021-11-04 02:57:00,,0831.0,5.00,0.00,28.5,27.6,00.0,37.6,30.2,14.7,0000.0,0008.91,0004.60,0004.20
2021-11-04 02:58:00,,0831.0,5.00,0.00,28.5,27.6,00.0,37.6,30.2,14.7,0000.0,0008.91,0004.59,0004.20
2021-11-04 02:59:00,,0831.0,5.00,0.00,28.5,27.6,00.0,37.6,30.2,14.7,0000.0,0008.92,0004.59,0004.20
